Regional Weather Roundup
Issued by NWS Jackson, KY

Home | Current Version | Previous Version | Text Only | Print | Product List | Glossary Off
Versions: 1 2 3 4 5 6 7 8 9 10 11 12 13 14 15 16 17 18 19 20 21 22 23 24 25 26 27 28 29 30 31 32 33 34 35 36 37 38 39 40 41 42 43 44 45 46 47 48 49 50

000
ASUS43 KJKL 240010
RWRJKL

EAST KENTUCKY HOURLY WEATHER ROUNDUP
NATIONAL WEATHER SERVICE JACKSON KY
700 PM EST MON JAN 23 2017

NOTE: "FAIR" INDICATES FEW OR NO CLOUDS BELOW 12,000 FEET WITH
NO SIGNIFICANT WEATHER AND/OR OBSTRUCTIONS TO VISIBILITY.

* THESE REPORTS ARE NOT UNDER NWS QUALITY CONTROL AND MAY NOT
  REPORT WEATHER SUCH AS PRECIPITATION AND FOG.

KYZ079-080-083-085-087-088-110-112-115-119-120-240100
...EASTERN KENTUCKY...

CITY           SKY/WX    TMP DP  RH WIND       PRES   REMARKS
JACKSON        LGT RAIN  46  44  93 VRB5      29.54R FOG
6HR MIN TEMP:  46; 6HR MAX TEMP:  50; 6HR PCP:  0.19;

LONDON         CLOUDY    46  43  89 NW9G23    29.60R
6HR MIN TEMP:  46; 6HR MAX TEMP:  50; 6HR PCP:  0.01;

SOMERSET*      CLOUDY    45  45 100 NW9G18    29.66R
MONTICELLO*    LGT RAIN  44  43  96 W15       29.69R FOG
6HR MIN TEMP:  44; 6HR MAX TEMP:  52; 6HR PCP: TRACE;

WILLIAMSBURG*  CLOUDY    45  45 100 W7G16     29.62R
MIDDLESBORO*   DRIZZLE   47  45  91 NW15G22   29.59R
6HR MIN TEMP:  47; 6HR MAX TEMP:  54; 6HR PCP:  0.05;

HARLAN APT*    CLOUDY    46  43  87 SW10G16   29.54R
PIKE CO APT*   LGT RAIN  44  44 100 NW12      29.52R
BIG SANDY APT* DRIZZLE   46  46 100 N7        29.53R
6HR MIN TEMP:  46; 6HR MAX TEMP:  50;

MOREHEAD APT*  LGT RAIN  46  46 100 NW6       29.58R
ASHLAND*       CLOUDY    46  43  87 NE5       29.54R
$$

KYZ035-036-041-042-044-050-067-078-099-240100
...CENTRAL KENTUCKY...

CITY           SKY/WX    TMP DP  RH WIND       PRES   REMARKS
MT STERLING*   DRIZZLE  N/A N/A N/A N8G16     29.61R
FLEMING/MASON* CLOUDY    46  45  99 NW8       29.59R FOG
DANVILLE*      CLOUDY    43  43 100 NW15G24   29.66R
LEXINGTON      CLOUDY    46  44  93 NW12      29.62R FOG
6HR MIN TEMP:  46; 6HR MAX TEMP:  48; 6HR PCP:  0.04;

FRANKFORT      CLOUDY    45  41  86 W10G21    29.64R FOG
6HR MIN TEMP:  45; 6HR MAX TEMP:  49; 6HR PCP:  0.02;

LOUISVILLE     CLOUDY    46  40  79 NW12      29.70R
6HR MIN TEMP:  46; 6HR MAX TEMP:  50;

LEBANON*       CLOUDY    45  41  87 NW9       29.68R
GLASGOW*       CLOUDY    43  40  89 W14G20    29.73R
BOWLING GREEN  CLOUDY    44  36  73 NW9G21    29.76R
6HR MIN TEMP:  44; 6HR MAX TEMP:  47;

$$

KYZ091>093-OHZ055-061-077-WVZ005-015-034-035-042-240100
...SOUTHERN OHIO/WEST VIRGINIA...

CITY           SKY/WX    TMP DP  RH WIND       PRES   REMARKS
COVINGTON      DRIZZLE   46  45  96 NW12      29.62R FOG
COLUMBUS       CLOUDY    46  42  86 NE12      29.58R FOG
DAYTON         CLOUDY    42  41  96 N16       29.62S FOG
WILMINGTON     LGT RAIN  45  44  97 N13       29.59R FOG
HUNTINGTON     CLOUDY    46  43  89 N5        29.53R
CHARLESTON     LGT RAIN  43  38  82 NW8       29.51R
BECKLEY        LGT RAIN  41  38  89 CALM      29.45R FOG
BLUEFIELD      LGT RAIN  38  36  92 NE5       29.45R WCI  34
LOGAN CO APT*  CLOUDY    43  43 100 CALM      29.48R
$$

VAZ002-007-008-TNZ017-027-036-066-071-240100
...SOUTHWEST VIRGINIA/EAST TENNESSEE...

CITY           SKY/WX    TMP DP  RH WIND       PRES   REMARKS
WISE*          DRIZZLE   45  45 100 NW12      29.49R
JONESVILLE*    CLOUDY    48  46  93 W3        29.56R FOG
ABINGDON*      CLOUDY    47  46  96 NW5       29.47R FOG
BRISTOL        LGT RAIN  49  46  90 NW9       29.48R FOG
MORRISTOWN*    CLOUDY    50  46  87 NW9G16    29.55R
SEVIERVILLE*   CLOUDY    50  45  81 W7        29.58R
KNOXVILLE      CLOUDY    50  44  80 W14       29.60R
LAFOLLETTE*    CLOUDY    48  45  87 W8G15     29.63R FOG
OAK RIDGE      LGT RAIN  50  44  80 W5        29.62R
CROSSVILLE     CLOUDY    41  39  93 W15G25    29.67R FOG
NASHVILLE      CLOUDY    46  36  68 N12       29.77R
$$

...KEY TO REMARKS...
VSB - VISIBILITY IN MILES
WCI - WIND CHILL INDEX
HX  - HEAT INDEX

$$



USA.gov is the U.S. government's official web portal to all federal, state and local government web resources and services.